Meteo Giornale » Osservazioni meteo Svizzera » Grenchen

ore: 12:50 - Osservazioni Meteo Grenchen
Lat. 47° 10' N Lon. 7° 24' E Alt. 430 metri s.l.m.

nuvoloso_piovaschi Europe/Zurich

19 °C

Rovescio di Pioggia

Temp. 24 Ore

17 °C

21 °C

Sud-Ovest

7.4 Km/h

Dew point 18 °C

Umidità 93 %

Visibilità  7 Km

Il sole sorge alle ore 07:08

Il sole tramonta alle ore 19:42

Data e Ora Cielo e Fenomeni T °C DP °C Um. % Pres. hPa Vis. km Vento km/h
Oggi h: 12:50 nuvoloso_piovaschi Rovescio di Pioggia 19 18 93 1018 7 SO 7.4
Oggi h: 12:20 nuvoloso_piovaschi Rovescio di Pioggia 19 18 93 1018 7 N 5.5
Oggi h: 11:50 nuvoloso_piovaschi Rovescio di Pioggia 18 17 93 1018 10 N 3.7
Oggi h: 11:20 nuvoloso_piovaschi Rovescio di Pioggia 18 17 93 1018 10 N 5.5
Oggi h: 10:50 molto_nuvoloso Molto Nuvoloso 18 17 93 1018 6 N 5.5
Oggi h: 10:20 molto_nuvoloso Molto Nuvoloso 18 17 93 1018 6 N 3.7
Oggi h: 09:50 molto_nuvoloso Molto Nuvoloso 17 17 100 1018 6 N 5.5
Oggi h: 09:20 molto_nuvoloso Molto Nuvoloso 17 17 100 1018 5 N 3.7
Oggi h: 08:50 coperto_pioggia Pioggia Foschia 17 17 100 1017 3 N 3.7
Oggi h: 08:20 coperto_pioggia Pioggia 17 17 100 1017 8 N 1.8
Oggi h: 07:50 molto_nuvoloso Molto Nuvoloso 17 17 100 1017 10 N 1.8
Oggi h: 07:20 coperto_pioggia Pioggia 17 17 100 1016 7 N 3.7
Oggi h: 06:50 coperto_pioggia Pioggia 17 17 100 1016 4 N 3.7
Oggi h: 05:50 coperto_pioggia Pioggia 17 17 100 1017 8 N 1.8
Oggi h: 05:20 coperto_pioggia Pioggia Debole 17 17 100 1017 10 N 1.8
Oggi h: 04:50 coperto_pioggia Pioggia Debole 17 17 100 1016 7 N 0
Oggi h: 04:20 coperto_pioggia Pioggia Debole 17 17 100 1017 10 N 1.8
Oggi h: 03:50 coperto_pioggia Pioggia Debole 17 17 100 1017 10 N 1.8
Oggi h: 03:20 coperto_pioggia Pioggia Debole 18 17 93 1017 10 N 1.8
Oggi h: 02:50 poco_nuvoloso Poco Nuvoloso 17 17 100 1016 10 S/SO 7.4
Oggi h: 02:20 nuvoloso Nuvoloso 18 17 93 1016 10 N 5.5
Oggi h: 01:50 nuvoloso Nuvoloso 18 17 93 1017 10 N 5.5
Oggi h: 01:20 molto_nuvoloso Molto Nuvoloso 18 17 93 1017 10 N 5.5
Oggi h: 00:50 molto_nuvoloso Molto Nuvoloso 18 18 100 1016 5 N 3.7
Oggi h: 00:20 foschia Foschia 18 18 100 1017 3 N 1.8
Ieri h: 23:50 foschia Foschia 18 18 100 1017 4 N 3.7
Ieri h: 23:20 molto_nuvoloso Molto Nuvoloso 18 18 100 1017 5 N 1.8
Ieri h: 22:50 molto_nuvoloso Molto Nuvoloso 18 18 100 1017 6 N 3.7
Ieri h: 22:20 foschia Foschia 18 18 100 1016 5 N 0
Ieri h: 21:50 coperto Coperto 18 18 100 1016 5 N 3.7
Ieri h: 21:20 nuvoloso Nuvoloso 19 18 93 1016 9 N 3.7
Ieri h: 20:50 coperto_pioggia Pioggia 19 18 93 1016 2 N 3.7
Ieri h: 20:20 molto_nuvoloso Molto Nuvoloso 20 18 88 1016 10 N 3.7
Ieri h: 19:50 molto_nuvoloso Molto Nuvoloso 20 19 93 1016 10 N 1.8
Ieri h: 19:20 molto_nuvoloso Molto Nuvoloso 21 18 82 1015 10 N 0
Ieri h: 18:50 molto_nuvoloso Molto Nuvoloso 21 17 77 1015 10 N 0
Ieri h: 17:50 molto_nuvoloso Molto Nuvoloso 21 18 82 1015 10 N 5.5
Ieri h: 17:20 molto_nuvoloso Molto Nuvoloso 21 18 82 1015 10 N 3.7
Ieri h: 16:50 molto_nuvoloso Molto Nuvoloso 21 18 82 1015 10 N 5.5
Ieri h: 16:20 molto_nuvoloso Rovescio nelle Vicinanze 21 18 82 1015 10 N 5.5
Ieri h: 15:50 coperto_pioggia Pioggia Debole 20 18 88 1016 10 O/SO 7.4
Ieri h: 15:20 coperto_pioggia Pioggia Debole 20 18 88 1016 10 O/SO 7.4
Ieri h: 14:50 coperto_pioggia Pioggia 20 18 88 1016 8 N 5.5
Ieri h: 14:20 molto_nuvoloso Molto Nuvoloso 21 18 82 1016 10 N 5.5
Ieri h: 13:50 nuvoloso_piovaschi Debole Rovescio di Pioggia 20 18 88 1016 8 N 1.8